COSMOS 2251 DEB, 35026

Orbit data source: Space-Track

COSMOS 2251 DEB, 35026 is space debris in LEO originally from a launch on Wed, 16 Jun 1993 UTC launched from the Plesetsk Missile And Space Complex (PKMTR). The debris from Iridium 33, an American commercial communications satellite, has been tracked extensively since its accidental collision with the defunct Russian satellite Cosmos 2251 in 2009. This event, occurring at high speed in low Earth orbit (LEO), generated thousands of pieces of space debris, significantly increasing the risk of further collisions. The Iridium 33 debris cloud has impacted space traffic management and orbital debris mitigation strategies, making it a subject of ongoing study in space situational awareness.

Loading next visibility...
Identifier
35026, 1993-036AGP
Orbit
LEO
Country
Flag of CISCIS
Related business
Manufacturer
Unknown
Mission
Spacecraft
Bus & Motor
Unknown
Mass
Unknown
Launch date (UTC)
1993-06-16 (33 years ago)
Launch vehicle
Unknown
Launch site
Plesetsk Missile And Space Complex (PKMTR)
Object type
Payload
Rocket body
Debris
Shape & HBR
Unknown shape, 0.1 m
Radar Cross Section
Small (<0.1 m²)

Expand to show TLE details & history
Last TLE update: 4 days ago

TLE from 4 days ago
0 COSMOS 2251 DEB
1 35026U 93036AGP 25352.15625161  .00000237  00000-0  60976-4 0  9995
2 35026  74.0470 308.5764 0082422  60.5026 318.4835 14.53626797882224
Epoch: 2025-12-18T03:45Z
TLE epoch observation values (Epoch: 2025-12-18T03:45:00.139Z)
Latitude
17.62123°
Longitude
170.4912°
Altitude
672.312 km
Speed
7.545 km/s
True Right ascension
20h 55m 01s
True Declination
17° 31' 16"
Sunlit
Object was in daylight at epoch
Visualization orbit readout
Latitude
Unknown
Longitude
Unknown
Altitude
Unknown
Speed
Unknown
Apparent Right ascension
Unknown
Apparent Declination
Unknown
Sunlit
N/A
Visualization observer readout
Local Sidereal Time
17:45:41
Azimuth
Unknown
Elevation
Unknown
Doppler factor
Unknown
Orbital elements
Apogee altitude
769.865 km
Perigee altitude
652.997 km
Semi-major axis
7,089.568 km
Eccentricity
0.00824
Inclination
74.047°
RAAN
308.5764°
Arg. of periapsis
60.5026°
True anomaly
317.85261°
Mean anomaly
318.4835°
Eccentric anomaly
318.16854°
Mean motion
3.63591 °/min
Orbital period
99.01 mins
BSTAR
0.000060976
Loading maneuver chart data...
Computing Atmospheric mass density...

Documentation

Showing up to 5 results
|